YRWSF LPVL-LEIB

Flight info

Callsign YRWSF
Flight time 1h 48m
Altitude 30000
Route PRT UL155 ADORO L155 NVS M871 NANDO T257 MABUX M871 LASPO Z224 VARUT
Aircraft SF50/L-BDGRSWY/LB2U2

Departure

Time 2026-04-30 18:38
Airport Vilar de Luz Airfield (LPVL)

Arrival

Time 2026-04-30 20:26
Airport Ibiza Airport (LEIB)
Time Latitude Longitude Altitude Speed Heading
2026-04-30 18:23 41.28000 -8.51908 752 ft 0 kts 65°
2026-04-30 18:34 41.27874 -8.51792 751 ft 24 kts 154°
2026-04-30 18:34 41.27820 -8.51758 749 ft 0 kts 153°
2026-04-30 18:36 41.27791 -8.51739 751 ft 12 kts 154°
2026-04-30 18:36 41.27695 -8.51679 752 ft 11 kts 154°
2026-04-30 18:36 41.27659 -8.51630 753 ft 0 kts 110°
2026-04-30 18:37 41.27651 -8.51586 752 ft 11 kts 88°
2026-04-30 18:37 41.27676 -8.51570 750 ft 0 kts 333°
2026-04-30 18:37 41.27698 -8.51584 751 ft 21 kts 335°
2026-04-30 18:38 41.28055 -8.51811 750 ft 90 kts 334°
2026-04-30 18:38 41.28701 -8.52235 1075 ft 107 kts 330°
2026-04-30 18:38 41.29299 -8.52693 1572 ft 106 kts 326°
2026-04-30 18:38 41.29981 -8.53069 2003 ft 115 kts 349°
2026-04-30 18:39 41.30752 -8.52816 2481 ft 122 kts 37°
2026-04-30 18:39 41.31165 -8.51817 2885 ft 130 kts 82°
2026-04-30 18:39 41.31256 -8.50591 3290 ft 137 kts 85°
2026-04-30 18:39 41.31384 -8.49301 3658 ft 147 kts 85°
2026-04-30 18:40 41.31510 -8.47877 4047 ft 163 kts 86°
2026-04-30 18:40 41.31644 -8.46335 4448 ft 172 kts 86°
2026-04-30 18:40 41.31782 -8.44735 4852 ft 175 kts 85°
2026-04-30 18:40 41.31926 -8.43115 5222 ft 176 kts 86°
2026-04-30 18:41 41.32062 -8.41490 5598 ft 177 kts 86°
2026-04-30 18:41 41.32201 -8.39858 5980 ft 178 kts 86°
2026-04-30 18:41 41.32343 -8.38213 6447 ft 179 kts 86°
2026-04-30 18:41 41.32504 -8.36571 6979 ft 180 kts 82°
2026-04-30 18:42 41.32797 -8.34925 7448 ft 184 kts 78°
2026-04-30 18:42 41.33406 -8.31588 8414 ft 189 kts 79°
2026-04-30 18:42 41.33712 -8.29877 8881 ft 191 kts 79°
2026-04-30 18:45 41.36866 -8.11736 13154 ft 210 kts 79°
2026-04-30 18:45 41.37209 -8.09837 13576 ft 212 kts 79°
2026-04-30 18:45 41.37557 -8.07923 13997 ft 213 kts 79°
2026-04-30 18:46 41.37910 -8.05997 14349 ft 215 kts 79°
2026-04-30 18:46 41.38264 -8.04058 14723 ft 216 kts 79°
2026-04-30 18:46 41.38618 -8.02137 15089 ft 217 kts 79°
2026-04-30 18:46 41.38980 -8.00175 15453 ft 219 kts 79°
2026-04-30 18:47 41.39348 -7.98197 15852 ft 220 kts 79°
2026-04-30 18:47 41.39719 -7.96218 16240 ft 221 kts 79°
2026-04-30 18:47 41.40086 -7.94255 16629 ft 222 kts 79°
2026-04-30 18:47 41.40462 -7.92248 17035 ft 224 kts 79°
2026-04-30 18:48 41.40839 -7.90230 17440 ft 225 kts 79°
2026-04-30 18:48 41.41220 -7.88198 17840 ft 227 kts 79°
2026-04-30 18:48 41.41603 -7.86161 18251 ft 228 kts 79°
2026-04-30 18:48 41.41989 -7.84108 18621 ft 229 kts 79°
2026-04-30 18:49 41.42377 -7.82045 18982 ft 230 kts 79°
2026-04-30 18:49 41.42766 -7.79998 19326 ft 231 kts 79°
2026-04-30 18:49 41.43164 -7.77913 19688 ft 232 kts 79°
2026-04-30 18:49 41.43563 -7.75813 20027 ft 234 kts 79°
2026-04-30 18:50 41.43964 -7.73705 20396 ft 235 kts 79°
2026-04-30 18:50 41.44370 -7.71588 20765 ft 237 kts 79°
2026-04-30 18:50 41.44781 -7.69453 21140 ft 238 kts 79°
2026-04-30 18:50 41.45192 -7.67326 21555 ft 237 kts 79°
2026-04-30 18:51 41.45595 -7.65201 21968 ft 236 kts 81°
2026-04-30 18:51 41.45907 -7.63054 22377 ft 235 kts 84°
2026-04-30 18:51 41.46094 -7.61635 22657 ft 235 kts 84°
2026-04-30 18:51 41.46471 -7.58757 23146 ft 237 kts 84°
2026-04-30 18:52 41.46660 -7.57315 23379 ft 238 kts 84°
2026-04-30 18:52 41.47036 -7.54436 23821 ft 238 kts 84°
2026-04-30 18:52 41.47229 -7.52972 24015 ft 237 kts 84°
2026-04-30 18:52 41.47516 -7.50808 24293 ft 237 kts 84°
2026-04-30 18:53 41.47896 -7.47949 24659 ft 236 kts 84°
2026-04-30 18:53 41.48092 -7.46492 24848 ft 236 kts 84°
2026-04-30 18:53 41.48384 -7.44339 25131 ft 236 kts 84°
2026-04-30 18:53 41.48676 -7.42192 25416 ft 235 kts 84°
2026-04-30 18:54 41.48970 -7.40049 25700 ft 235 kts 84°
2026-04-30 18:54 41.49264 -7.37906 25990 ft 235 kts 84°
2026-04-30 18:54 41.49556 -7.35794 26282 ft 234 kts 84°
2026-04-30 18:54 41.49854 -7.33661 26581 ft 234 kts 84°
2026-04-30 18:55 41.50154 -7.31531 26880 ft 233 kts 84°
2026-04-30 18:55 41.50758 -7.27288 27459 ft 233 kts 84°
2026-04-30 18:55 41.51062 -7.25168 27744 ft 232 kts 84°
2026-04-30 18:56 41.51275 -7.20957 28321 ft 224 kts 102°
2026-04-30 18:56 41.51100 -7.18889 28611 ft 225 kts 101°
2026-04-30 18:56 41.51012 -7.16799 28915 ft 226 kts 97°
2026-04-30 18:57 41.50890 -7.12624 29440 ft 224 kts 98°
2026-04-30 18:57 41.50830 -7.10545 29677 ft 224 kts 98°
2026-04-30 18:57 41.50777 -7.08465 29941 ft 223 kts 98°
2026-04-30 18:58 41.50663 -7.04309 30078 ft 227 kts 98°
2026-04-30 18:58 41.50606 -7.02209 30076 ft 226 kts 98°
2026-04-30 18:58 41.50549 -7.00125 30073 ft 224 kts 98°
2026-04-30 18:59 41.50432 -6.95995 30064 ft 222 kts 98°
2026-04-30 19:00 41.50246 -6.89623 30088 ft 243 kts 97°
2026-04-30 19:00 41.50180 -6.87321 30083 ft 253 kts 97°
2026-04-30 19:00 41.50040 -6.82490 30077 ft 268 kts 97°
2026-04-30 19:01 41.49891 -6.77410 30087 ft 279 kts 97°
2026-04-30 19:01 41.49813 -6.74806 30088 ft 283 kts 97°
2026-04-30 19:02 41.49650 -6.69479 30090 ft 290 kts 97°
2026-04-30 19:02 41.49483 -6.64088 30087 ft 296 kts 97°
2026-04-30 19:03 41.49309 -6.58559 30089 ft 301 kts 97°
2026-04-30 19:04 41.48947 -6.47248 30098 ft 309 kts 96°
2026-04-30 19:05 41.48567 -6.35742 30098 ft 309 kts 97°
2026-04-30 19:06 41.48595 -6.24301 30088 ft 312 kts 87°
2026-04-30 19:06 41.49238 -6.15652 30086 ft 313 kts 88°
2026-04-30 19:07 41.49892 -6.06997 30092 ft 312 kts 88°
2026-04-30 19:08 41.50746 -5.95485 30085 ft 312 kts 88°
2026-04-30 19:09 41.51379 -5.86836 30092 ft 312 kts 88°
2026-04-30 19:09 41.51798 -5.81064 30097 ft 312 kts 88°
2026-04-30 19:10 41.52611 -5.69556 30095 ft 311 kts 90°
2026-04-30 19:11 41.52441 -5.66663 30094 ft 307 kts 104°
2026-04-30 19:11 41.50784 -5.61574 30097 ft 299 kts 129°
2026-04-30 19:11 41.49403 -5.59528 30097 ft 295 kts 140°
2026-04-30 19:12 41.47879 -5.57688 30101 ft 296 kts 140°
2026-04-30 19:12 41.46366 -5.55826 30103 ft 296 kts 140°
2026-04-30 19:12 41.44850 -5.53960 30101 ft 296 kts 140°
2026-04-30 19:13 41.41813 -5.50258 30101 ft 296 kts 140°
2026-04-30 19:13 41.38779 -5.46553 30100 ft 296 kts 140°
2026-04-30 19:13 41.37259 -5.44701 30100 ft 296 kts 140°
2026-04-30 19:14 41.35741 -5.42853 30101 ft 296 kts 140°
2026-04-30 19:14 41.34245 -5.41030 30102 ft 296 kts 140°
2026-04-30 19:14 41.32729 -5.39184 30102 ft 296 kts 140°
2026-04-30 19:14 41.31210 -5.37337 30100 ft 295 kts 141°
2026-04-30 19:15 41.29692 -5.35493 30101 ft 296 kts 140°
2026-04-30 19:15 41.26652 -5.31799 30103 ft 296 kts 141°
2026-04-30 19:15 41.25135 -5.29959 30100 ft 295 kts 141°
2026-04-30 19:16 41.23616 -5.28118 30101 ft 295 kts 141°
2026-04-30 19:16 41.22097 -5.26278 30104 ft 296 kts 141°
2026-04-30 19:16 41.19056 -5.22597 30103 ft 296 kts 141°
2026-04-30 19:17 41.17532 -5.20756 30098 ft 295 kts 141°
2026-04-30 19:17 41.14493 -5.17086 30104 ft 296 kts 141°
2026-04-30 19:17 41.12973 -5.15251 30103 ft 296 kts 141°
2026-04-30 19:18 41.10439 -5.12196 30103 ft 295 kts 141°
2026-04-30 19:18 41.08423 -5.09771 30100 ft 296 kts 141°
2026-04-30 19:18 41.06911 -5.07952 30101 ft 296 kts 141°
2026-04-30 19:19 41.05378 -5.06109 30099 ft 295 kts 141°
2026-04-30 19:19 41.03854 -5.04278 30097 ft 295 kts 141°
2026-04-30 19:19 41.00808 -5.00622 30095 ft 296 kts 141°
2026-04-30 19:20 40.99283 -4.98794 30099 ft 296 kts 141°
2026-04-30 19:20 40.97758 -4.96966 30098 ft 296 kts 141°
2026-04-30 19:20 40.94704 -4.93310 30100 ft 296 kts 141°
2026-04-30 19:21 40.93179 -4.91486 30097 ft 296 kts 141°
2026-04-30 19:21 40.90139 -4.87854 30098 ft 296 kts 142°
2026-04-30 19:22 40.87076 -4.84200 30097 ft 296 kts 142°
2026-04-30 19:22 40.82485 -4.78727 30106 ft 297 kts 142°
2026-04-30 19:23 40.77882 -4.73252 30097 ft 297 kts 142°
2026-04-30 19:24 40.74809 -4.69603 30105 ft 297 kts 142°
2026-04-30 19:24 40.73272 -4.67779 30101 ft 297 kts 142°
2026-04-30 19:24 40.70195 -4.64133 30098 ft 297 kts 142°
2026-04-30 19:25 40.65592 -4.58687 30099 ft 298 kts 142°
2026-04-30 19:26 40.62504 -4.55040 30104 ft 298 kts 142°
2026-04-30 19:26 40.59937 -4.52011 30096 ft 298 kts 142°
2026-04-30 19:26 40.57872 -4.49577 30098 ft 298 kts 142°
2026-04-30 19:27 40.54781 -4.45938 30094 ft 298 kts 142°
2026-04-30 19:27 40.51686 -4.42301 30085 ft 298 kts 142°
2026-04-30 19:28 40.50139 -4.40485 30103 ft 298 kts 142°
2026-04-30 19:28 40.47063 -4.36876 30089 ft 298 kts 142°
2026-04-30 19:29 40.43964 -4.33246 30088 ft 298 kts 142°
2026-04-30 19:29 40.42413 -4.31431 30097 ft 299 kts 142°
2026-04-30 19:30 40.37939 -4.25750 30085 ft 303 kts 129°
2026-04-30 19:30 40.36317 -4.20597 30075 ft 312 kts 104°
2026-04-30 19:31 40.35627 -4.14972 30081 ft 313 kts 103°
2026-04-30 19:31 40.34563 -4.06534 30072 ft 313 kts 103°
2026-04-30 19:32 40.33858 -4.00951 30070 ft 312 kts 103°
2026-04-30 19:32 40.33146 -3.95327 30067 ft 312 kts 103°
2026-04-30 19:33 40.32431 -3.89714 30066 ft 312 kts 103°
2026-04-30 19:33 40.31711 -3.84077 30065 ft 313 kts 103°
2026-04-30 19:34 40.30996 -3.78493 30071 ft 313 kts 103°
2026-04-30 19:35 40.29907 -3.70054 30067 ft 313 kts 103°
2026-04-30 19:35 40.29178 -3.64431 30067 ft 313 kts 103°
2026-04-30 19:36 40.28446 -3.58802 30069 ft 313 kts 103°
2026-04-30 19:36 40.27343 -3.50366 30066 ft 313 kts 103°
2026-04-30 19:37 40.26602 -3.44738 30065 ft 314 kts 104°
2026-04-30 19:37 40.25984 -3.40049 30071 ft 314 kts 103°
2026-04-30 19:38 40.25029 -3.33544 30073 ft 311 kts 110°
2026-04-30 19:38 40.23807 -3.28090 30070 ft 312 kts 110°
2026-04-30 19:39 40.22614 -3.22621 30072 ft 312 kts 110°
2026-04-30 19:39 40.21608 -3.18081 30070 ft 312 kts 110°
2026-04-30 19:40 40.20206 -3.11729 30074 ft 313 kts 110°
2026-04-30 19:40 40.19192 -3.07152 30077 ft 313 kts 110°
2026-04-30 19:41 40.17978 -3.01691 30078 ft 313 kts 110°
2026-04-30 19:41 40.16762 -2.96225 30078 ft 313 kts 110°
2026-04-30 19:42 40.15550 -2.90796 30079 ft 313 kts 110°
2026-04-30 19:42 40.14331 -2.85354 30081 ft 314 kts 110°
2026-04-30 19:43 40.13106 -2.79882 30080 ft 313 kts 110°
2026-04-30 19:44 40.11258 -2.71673 30080 ft 314 kts 110°
2026-04-30 19:44 40.10022 -2.66201 30084 ft 314 kts 110°
2026-04-30 19:45 40.08783 -2.60725 30081 ft 314 kts 110°
2026-04-30 19:45 40.07541 -2.55248 30089 ft 315 kts 110°
2026-04-30 19:46 40.06303 -2.49807 30090 ft 315 kts 110°
2026-04-30 19:46 40.05046 -2.44295 30088 ft 315 kts 111°
2026-04-30 19:47 40.03800 -2.38846 30086 ft 315 kts 111°
2026-04-30 19:47 40.02544 -2.33358 30087 ft 315 kts 111°
2026-04-30 19:48 40.01286 -2.27878 30090 ft 315 kts 111°
2026-04-30 19:48 40.00026 -2.22398 30092 ft 315 kts 111°
2026-04-30 19:49 39.98679 -2.16982 30094 ft 312 kts 119°
2026-04-30 19:49 39.95558 -2.09567 30101 ft 311 kts 123°
2026-04-30 19:50 39.93478 -2.04663 30095 ft 311 kts 123°
2026-04-30 19:50 39.91387 -1.99727 30095 ft 311 kts 123°
2026-04-30 19:51 39.89288 -1.94784 30098 ft 312 kts 123°
2026-04-30 19:51 39.87189 -1.89851 30098 ft 312 kts 123°
2026-04-30 19:52 39.85083 -1.84908 30093 ft 312 kts 123°
2026-04-30 19:52 39.82972 -1.79963 30096 ft 313 kts 123°
2026-04-30 19:53 39.80857 -1.75013 30098 ft 313 kts 123°
2026-04-30 19:53 39.78738 -1.70066 30096 ft 313 kts 123°
2026-04-30 19:54 39.76614 -1.65113 30099 ft 313 kts 123°
2026-04-30 19:54 39.74500 -1.60190 30101 ft 314 kts 123°
2026-04-30 19:55 39.72369 -1.55237 30093 ft 314 kts 123°
2026-04-30 19:55 39.70234 -1.50282 30094 ft 315 kts 123°
2026-04-30 19:56 39.68091 -1.45317 30085 ft 315 kts 123°
2026-04-30 19:56 39.65943 -1.40348 30084 ft 316 kts 123°
2026-04-30 19:57 39.63789 -1.35372 30081 ft 316 kts 123°
2026-04-30 19:57 39.61631 -1.30402 30080 ft 317 kts 123°
2026-04-30 19:58 39.59468 -1.25416 30077 ft 317 kts 123°
2026-04-30 19:58 39.57314 -1.20467 30078 ft 317 kts 123°
2026-04-30 19:59 39.55141 -1.15482 30080 ft 318 kts 123°
2026-04-30 20:00 39.51870 -1.08000 30087 ft 318 kts 123°
2026-04-30 20:00 39.49686 -1.03013 30088 ft 319 kts 123°
2026-04-30 20:01 39.46393 -0.95512 30099 ft 320 kts 124°
2026-04-30 20:01 39.44192 -0.90508 30113 ft 320 kts 124°
2026-04-30 20:02 39.40901 -0.82983 30103 ft 321 kts 123°
2026-04-30 20:03 39.37591 -0.75503 30100 ft 322 kts 124°
2026-04-30 20:03 39.35368 -0.70479 30098 ft 322 kts 124°
2026-04-30 20:04 39.33137 -0.65446 30096 ft 323 kts 124°
2026-04-30 20:05 39.29782 -0.57888 30094 ft 323 kts 124°
2026-04-30 20:05 39.27292 -0.49785 30094 ft 330 kts 108°
2026-04-30 20:06 39.26086 -0.44053 30093 ft 331 kts 109°
2026-04-30 20:06 39.24897 -0.38322 30090 ft 331 kts 108°
2026-04-30 20:07 39.23696 -0.32592 30088 ft 331 kts 109°
2026-04-30 20:08 39.21889 -0.23982 30087 ft 332 kts 109°
2026-04-30 20:08 39.20677 -0.18235 30086 ft 332 kts 109°
2026-04-30 20:09 39.19465 -0.12495 30085 ft 332 kts 109°
2026-04-30 20:09 39.17646 -0.03914 30082 ft 333 kts 109°
2026-04-30 20:10 39.15808 0.04719 30082 ft 332 kts 109°
2026-04-30 20:11 39.13968 0.13345 29663 ft 334 kts 109°
2026-04-30 20:11 39.13360 0.16181 28847 ft 328 kts 108°
2026-04-30 20:11 39.12763 0.18974 28056 ft 319 kts 109°
2026-04-30 20:12 39.11593 0.24409 26521 ft 312 kts 109°
2026-04-30 20:12 39.11012 0.27104 25788 ft 313 kts 108°
2026-04-30 20:12 39.10430 0.29806 25074 ft 313 kts 108°
2026-04-30 20:13 39.09848 0.32505 24381 ft 313 kts 108°
2026-04-30 20:13 39.09265 0.35202 23472 ft 314 kts 108°
2026-04-30 20:13 39.08680 0.37904 22197 ft 313 kts 108°
2026-04-30 20:13 39.08097 0.40601 20926 ft 311 kts 108°
2026-04-30 20:14 39.07514 0.43288 19722 ft 311 kts 108°
2026-04-30 20:14 39.06931 0.45969 18559 ft 312 kts 108°
2026-04-30 20:14 39.06345 0.48668 17285 ft 314 kts 108°
2026-04-30 20:14 39.05752 0.51394 16026 ft 318 kts 108°
2026-04-30 20:15 39.05160 0.54104 15296 ft 317 kts 108°
2026-04-30 20:15 39.04560 0.56860 14944 ft 323 kts 108°
2026-04-30 20:15 39.03948 0.59655 14528 ft 326 kts 108°
2026-04-30 20:15 39.03333 0.62465 14102 ft 326 kts 108°
2026-04-30 20:16 39.02670 0.65232 13645 ft 322 kts 114°
2026-04-30 20:16 39.01589 0.67720 13215 ft 317 kts 127°
2026-04-30 20:16 39.00131 0.69807 12793 ft 312 kts 141°
2026-04-30 20:16 38.98480 0.71595 12388 ft 309 kts 143°
2026-04-30 20:17 38.96840 0.73388 11981 ft 308 kts 142°
2026-04-30 20:17 38.95219 0.75174 11572 ft 306 kts 142°
2026-04-30 20:17 38.93605 0.76939 11172 ft 300 kts 141°
2026-04-30 20:17 38.92340 0.78944 10507 ft 280 kts 121°
2026-04-30 20:18 38.91499 0.81152 9787 ft 280 kts 117°
2026-04-30 20:18 38.90596 0.83423 9015 ft 282 kts 118°
2026-04-30 20:18 38.89702 0.85626 8450 ft 280 kts 117°
2026-04-30 20:18 38.88841 0.87832 8120 ft 280 kts 116°
2026-04-30 20:19 38.87974 0.90065 7754 ft 280 kts 116°
2026-04-30 20:19 38.87381 0.91578 7505 ft 279 kts 116°
2026-04-30 20:19 38.86227 0.94510 7018 ft 277 kts 116°
2026-04-30 20:19 38.85362 0.96714 6652 ft 275 kts 115°
2026-04-30 20:20 38.84503 0.98896 6283 ft 273 kts 115°
2026-04-30 20:20 38.83654 1.01058 5917 ft 270 kts 115°
2026-04-30 20:20 38.82811 1.03198 5560 ft 267 kts 115°
2026-04-30 20:20 38.81977 1.05311 5209 ft 265 kts 115°
2026-04-30 20:21 38.81149 1.07412 4860 ft 262 kts 115°
2026-04-30 20:21 38.80331 1.09483 4510 ft 257 kts 115°
2026-04-30 20:21 38.79545 1.11472 4179 ft 244 kts 115°
2026-04-30 20:21 38.78942 1.13447 3864 ft 234 kts 101°
2026-04-30 20:22 38.78811 1.15497 3553 ft 230 kts 86°
2026-04-30 20:22 38.79148 1.17474 3168 ft 226 kts 68°
2026-04-30 20:22 38.79816 1.19288 2874 ft 225 kts 62°
2026-04-30 20:22 38.80561 1.21050 2575 ft 225 kts 61°
2026-04-30 20:23 38.81274 1.22802 2281 ft 224 kts 63°
2026-04-30 20:23 38.81984 1.24502 1996 ft 201 kts 61°
2026-04-30 20:23 38.82589 1.25961 1752 ft 170 kts 63°
2026-04-30 20:23 38.83120 1.27253 1519 ft 160 kts 61°
2026-04-30 20:24 38.83639 1.28497 1311 ft 154 kts 63°
2026-04-30 20:24 38.84109 1.29646 1116 ft 130 kts 62°
2026-04-30 20:24 38.84494 1.30568 957 ft 108 kts 63°
2026-04-30 20:24 38.84828 1.31381 822 ft 101 kts 63°
2026-04-30 20:25 38.85474 1.32948 571 ft 100 kts 64°
2026-04-30 20:25 38.85810 1.33746 434 ft 102 kts 63°
2026-04-30 20:26 38.86472 1.35365 159 ft 102 kts 63°
2026-04-30 20:26 38.87001 1.36629 21 ft 78 kts 62°
2026-04-30 20:26 38.87234 1.37188 23 ft 38 kts 61°
2026-04-30 20:27 38.87504 1.37537 21 ft 16 kts 32°
2026-04-30 20:27 38.87624 1.37530 21 ft 8 kts 351°
2026-04-30 20:28 38.87665 1.37590 21 ft 2 kts 317°